TimeBST,TemperatureF,Dew PointF,Humidity,Sea Level PressureIn,VisibilityMPH,Wind Direction,Wind SpeedMPH,Gust SpeedMPH,PrecipitationIn,Events,Conditions,WindDirDegrees,DateUTC
12:20 AM,55.4,53.6,94,29.71,6.2,WSW,12.7,-,N/A,Rain,Rain,250,2012-10-02 23:20:00
12:50 AM,56,54,90,29.72,11,WSW,11.5,,,Rain,Rain,250,2012-10-02 23:50:00
12:50 AM,55.4,53.6,94,29.71,6.2,WSW,11.5,-,N/A,,Mostly Cloudy,250,2012-10-02 23:50:00
1:20 AM,55.4,53.6,94,29.71,6.2,WSW,8.1,-,N/A,,Partly Cloudy,240,2012-10-03 00:20:00
1:50 AM,55.4,53.6,94,29.71,-9999.0,West,8.1,-,N/A,,Clear,260,2012-10-03 00:50:00
2:50 AM,53.6,50.0,88,29.71,6.2,West,13.8,-,N/A,,Partly Cloudy,260,2012-10-03 01:50:00
3:50 AM,54,51,87,29.70,11,WSW,10.4,,,Rain,Light Rain Showers,240,2012-10-03 02:50:00
4:50 AM,53.6,50.0,88,29.71,6.2,WSW,9.2,-,N/A,,Partly Cloudy,240,2012-10-03 03:50:00
5:20 AM,53.6,50.0,88,29.68,6.2,WSW,11.5,-,N/A,,Partly Cloudy,240,2012-10-03 04:20:00
5:50 AM,53.6,48.2,82,29.68,-9999.0,WSW,11.5,-,N/A,,Clear,250,2012-10-03 04:50:00
6:20 AM,51.8,48.2,88,29.68,-9999.0,WSW,6.9,-,N/A,,Clear,250,2012-10-03 05:20:00
6:50 AM,52,47,78,29.70,13,WSW,8.1,,,,,240,2012-10-03 05:50:00
6:50 AM,51.8,46.4,82,29.68,-9999.0,WSW,8.1,-,N/A,,Clear,240,2012-10-03 05:50:00
7:20 AM,50.0,46.4,87,29.71,-9999.0,West,5.8,-,N/A,,Clear,260,2012-10-03 06:20:00
7:50 AM,50.0,46.4,87,29.71,6.2,West,4.6,-,N/A,,Partly Cloudy,260,2012-10-03 06:50:00
8:20 AM,51.8,48.2,88,29.71,6.2,West,9.2,-,N/A,,Partly Cloudy,260,2012-10-03 07:20:00
8:50 AM,55.4,50.0,82,29.71,6.2,WSW,9.2,-,N/A,,Partly Cloudy,250,2012-10-03 07:50:00
9:20 AM,57.2,50.0,77,29.71,6.2,West,11.5,-,N/A,,Partly Cloudy,260,2012-10-03 08:20:00
9:50 AM,57,49,68,29.74,19,West,13.8,,,,Partly Cloudy,260,2012-10-03 08:50:00
9:50 AM,57.2,48.2,72,29.74,6.2,West,13.8,-,N/A,,Partly Cloudy,260,2012-10-03 08:50:00
10:20 AM,57.2,50.0,77,29.74,6.2,West,13.8,-,N/A,,Partly Cloudy,260,2012-10-03 09:20:00
10:50 AM,55.4,48.2,77,29.74,6.2,West,13.8,-,N/A,,Partly Cloudy,260,2012-10-03 09:50:00
11:20 AM,57.2,48.2,72,29.74,6.2,WSW,11.5,-,N/A,,Partly Cloudy,240,2012-10-03 10:20:00
11:50 AM,57.2,46.4,67,29.74,6.2,West,13.8,-,N/A,,Partly Cloudy,260,2012-10-03 10:50:00
12:20 PM,57.2,46.4,67,29.74,6.2,WSW,12.7,-,N/A,,Partly Cloudy,250,2012-10-03 11:20:00
12:50 PM,56,47,64,29.75,19,WSW,10.4,,,,Overcast,240,2012-10-03 11:50:00
12:50 PM,57.2,48.2,72,29.74,6.2,WSW,11.5,-,N/A,,Partly Cloudy,240,2012-10-03 11:50:00
1:20 PM,57.2,48.2,72,29.74,6.2,WSW,10.4,-,N/A,,Partly Cloudy,250,2012-10-03 12:20:00
1:50 PM,57.2,50.0,77,29.71,6.2,SW,9.2,-,N/A,,Partly Cloudy,230,2012-10-03 12:50:00
2:20 PM,55.4,48.2,77,29.71,6.2,SW,18.4,-,N/A,,Partly Cloudy,220,2012-10-03 13:20:00
2:50 PM,57.2,48.2,72,29.71,6.2,WSW,15.0,-,N/A,,Partly Cloudy,240,2012-10-03 13:50:00
3:20 PM,57.2,48.2,72,29.71,6.2,WSW,16.1,-,N/A,,Partly Cloudy,250,2012-10-03 14:20:00
3:50 PM,57,47,62,29.72,19,WSW,13.8,,,Rain,Rain,250,2012-10-03 14:50:00
3:50 PM,57.2,48.2,72,29.71,6.2,WSW,12.7,-,N/A,,Scattered Clouds,250,2012-10-03 14:50:00
4:20 PM,55.4,48.2,77,29.71,6.2,West,12.7,-,N/A,Rain,Light Rain Showers,270,2012-10-03 15:20:00
4:50 PM,55.4,50.0,82,29.71,6.2,West,11.5,-,N/A,,Mostly Cloudy,260,2012-10-03 15:50:00
5:20 PM,55.4,50.0,82,29.71,6.2,WSW,9.2,-,N/A,,Partly Cloudy,250,2012-10-03 16:20:00
5:50 PM,55.4,50.0,82,29.68,6.2,WSW,6.9,-,N/A,,Partly Cloudy,240,2012-10-03 16:50:00
6:20 PM,55.4,50.0,82,29.68,6.2,WSW,10.4,-,N/A,,Scattered Clouds,240,2012-10-03 17:20:00
6:50 PM,54,49,78,29.71,17,WSW,13.8,,,Rain,Rain,250,2012-10-03 17:50:00
6:50 PM,55.4,50.0,82,29.71,6.2,WSW,13.8,-,N/A,,Scattered Clouds,250,2012-10-03 17:50:00
7:20 PM,53.6,48.2,82,29.68,6.2,WSW,9.2,-,N/A,,Scattered Clouds,240,2012-10-03 18:20:00
7:50 PM,53.6,50.0,88,29.71,6.2,West,9.2,-,N/A,,Scattered Clouds,260,2012-10-03 18:50:00
8:20 PM,53.6,50.0,88,29.71,6.2,WSW,5.8,-,N/A,,Partly Cloudy,250,2012-10-03 19:20:00
8:50 PM,51.8,48.2,88,29.71,6.2,WSW,3.5,-,N/A,,Partly Cloudy,250,2012-10-03 19:50:00
9:20 PM,51.8,48.2,88,29.71,6.2,WSW,3.5,-,N/A,,Partly Cloudy,240,2012-10-03 20:20:00
9:50 PM,51,48,86,29.71,16,SW,1.2,,,,Overcast,220,2012-10-03 20:50:00
9:50 PM,51.8,50.0,94,29.71,6.2,SW,1.2,-,N/A,,Partly Cloudy,230,2012-10-03 20:50:00
10:20 PM,50.0,48.2,94,29.71,6.2,ESE,1.2,-,N/A,,Partly Cloudy,120,2012-10-03 21:20:00
10:50 PM,50.0,48.2,94,29.68,6.2,West,3.5,-,N/A,,Partly Cloudy,260,2012-10-03 21:50:00